Torna al catalogo

FENGYUN 1C DEB

AttivoSSO
NORAD 32342·DEBRIS·🇨🇳 China

Lanciato May 10, 1999 da Taiyuan Satellite Launch Center

Loading…

Prossimi Passaggi (prossime 24 ore)

TLE

AggiornatoSource: Space-Track

Epoca: Sep 14, 2026, 23:37 UTC

1 32342U 99025CYK 26257.98414812  .00000066  00000-0  57722-4 0  9997
2 32342  98.6706 263.1043 0006603 276.8806 111.6365 14.13494725976200

Traccia FENGYUN 1C DEB in tempo reale con AllMySat

Download on the App Store